owner,sensor,date,latitude,longitude,vertical_datum,direction_of_sea_water_velocity,sea_water_speed,upward_sea_water_velocity,qcFlag 
WAVCIS,ioos:station:WAVCIS:CSI16:1,2012-03-01T00:00:00Z,29.4012,-89.0355,10.36,118.0,0.191,-99999.0,'11133222,11111222,99999999' 
WAVCIS,ioos:station:WAVCIS:CSI16:1,2012-03-01T01:00:00Z,29.4012,-89.0355,10.36,120.0,0.193,-99999.0,'11133222,11111222,99999999' 
WAVCIS,ioos:station:WAVCIS:CSI16:1,2012-03-01T02:00:00Z,29.4012,-89.0355,10.36,126.0,0.184,-99999.0,'11133222,11111222,99999999' 
WAVCIS,ioos:station:WAVCIS:CSI16:1,2012-03-01T03:00:00Z,29.4012,-89.0355,10.36,129.0,0.236,-99999.0,'11133222,11111222,99999999' 
WAVCIS,ioos:station:WAVCIS:CSI16:1,2012-03-01T04:00:00Z,29.4012,-89.0355,10.36,139.0,0.228,-99999.0,'11133222,11111222,99999999' 
WAVCIS,ioos:station:WAVCIS:CSI16:1,2012-03-01T05:00:00Z,29.4012,-89.0355,10.36,142.0,0.282,-99999.0,'11133222,11111222,99999999' 
WAVCIS,ioos:station:WAVCIS:CSI16:1,2012-03-01T06:00:00Z,29.4012,-89.0355,10.36,136.0,0.274,-99999.0,'11133222,11111222,99999999' 
WAVCIS,ioos:station:WAVCIS:CSI16:1,2012-03-01T07:00:00Z,29.4012,-89.0355,10.36,133.0,0.231,-99999.0,'11133222,11111222,99999999' 
WAVCIS,ioos:station:WAVCIS:CSI16:1,2012-03-01T08:00:00Z,29.4012,-89.0355,10.36,152.0,0.129,-99999.0,'11133222,11111222,99999999' 
WAVCIS,ioos:station:WAVCIS:CSI16:1,2012-03-01T09:00:00Z,29.4012,-89.0355,10.36,159.0,0.117,-99999.0,'11133222,11111222,99999999' 
WAVCIS,ioos:station:WAVCIS:CSI16:1,2012-03-01T10:00:00Z,29.4012,-89.0355,10.36,171.0,0.138,-99999.0,'11133222,11111222,99999999' 
WAVCIS,ioos:station:WAVCIS:CSI16:1,2012-03-01T11:00:00Z,29.4012,-89.0355,10.36,170.0,0.061,-99999.0,'11133222,11111222,99999999' 
WAVCIS,ioos:station:WAVCIS:CSI16:1,2012-03-01T12:00:00Z,29.4012,-89.0355,10.36,199.0,0.101,-99999.0,'11133222,11111222,99999999' 
WAVCIS,ioos:station:WAVCIS:CSI16:1,2012-03-01T13:00:00Z,29.4012,-89.0355,10.36,200.0,0.096,-99999.0,'11133222,11111222,99999999' 
WAVCIS,ioos:station:WAVCIS:CSI16:1,2012-03-01T14:00:00Z,29.4012,-89.0355,10.36,264.0,0.072,-99999.0,'11133222,11111222,99999999' 
WAVCIS,ioos:station:WAVCIS:CSI16:1,2012-03-01T15:00:00Z,29.4012,-89.0355,10.36,190.0,0.077,-99999.0,'11133222,11111222,99999999' 
WAVCIS,ioos:station:WAVCIS:CSI16:1,2012-03-01T16:00:00Z,29.4012,-89.0355,10.36,285.0,0.079,-99999.0,'11133222,11111222,99999999' 
WAVCIS,ioos:station:WAVCIS:CSI16:1,2012-03-01T17:00:00Z,29.4012,-89.0355,10.36,294.0,0.078,-99999.0,'11133222,11111222,99999999' 
WAVCIS,ioos:station:WAVCIS:CSI16:1,2012-03-01T18:00:00Z,29.4012,-89.0355,10.86,291.0,0.089,-99999.0,'11133222,11111222,99999999' 
WAVCIS,ioos:station:WAVCIS:CSI16:1,2012-03-01T19:00:00Z,29.4012,-89.0355,10.86,307.0,0.13,-99999.0,'11133222,11111222,99999999' 
WAVCIS,ioos:station:WAVCIS:CSI16:1,2012-03-01T20:00:00Z,29.4012,-89.0355,10.86,324.0,0.122,-99999.0,'11133222,11111222,99999999' 
WAVCIS,ioos:station:WAVCIS:CSI16:1,2012-03-01T21:00:00Z,29.4012,-89.0355,10.86,327.0,0.13,-99999.0,'11133222,11111222,99999999' 
WAVCIS,ioos:station:WAVCIS:CSI16:1,2012-03-01T22:00:00Z,29.4012,-89.0355,10.86,345.0,0.201,-99999.0,'11133222,11111222,99999999' 
WAVCIS,ioos:station:WAVCIS:CSI16:1,2012-03-01T23:00:00Z,29.4012,-89.0355,10.86,341.0,0.148,-99999.0,'11133222,11111222,99999999' 
WAVCIS,ioos:station:WAVCIS:CSI16:1,2012-03-02T00:00:00Z,29.4012,-89.0355,10.86,353.0,0.12,-99999.0,'11133222,11111222,99999999' 
WAVCIS,ioos:station:WAVCIS:CSI16:1,2012-03-02T01:00:00Z,29.4012,-89.0355,10.86,352.0,0.13,-99999.0,'11133222,11111222,99999999' 
WAVCIS,ioos:station:WAVCIS:CSI16:1,2012-03-02T02:00:00Z,29.4012,-89.0355,10.36,346.0,0.09,-99999.0,'11133222,11111222,99999999' 
WAVCIS,ioos:station:WAVCIS:CSI16:1,2012-03-02T03:00:00Z,29.4012,-89.0355,10.36,40.0,0.089,-99999.0,'11133222,11111222,99999999' 
WAVCIS,ioos:station:WAVCIS:CSI16:1,2012-03-02T04:00:00Z,29.4012,-89.0355,10.36,42.0,0.071,-99999.0,'11133222,11111222,99999999' 
WAVCIS,ioos:station:WAVCIS:CSI16:1,2012-03-02T05:00:00Z,29.4012,-89.0355,10.36,53.0,0.105,-99999.0,'11133222,11111222,99999999' 
WAVCIS,ioos:station:WAVCIS:CSI16:1,2012-03-02T06:00:00Z,29.4012,-89.0355,10.36,61.0,0.112,-99999.0,'11133222,11111222,99999999' 
WAVCIS,ioos:station:WAVCIS:CSI16:1,2012-03-02T07:00:00Z,29.4012,-89.0355,10.36,77.0,0.105,-99999.0,'11133222,11111222,99999999' 
WAVCIS,ioos:station:WAVCIS:CSI16:1,2012-03-02T08:00:00Z,29.4012,-89.0355,10.36,92.0,0.212,-99999.0,'11133222,11111222,99999999' 
WAVCIS,ioos:station:WAVCIS:CSI16:1,2012-03-02T09:00:00Z,29.4012,-89.0355,10.36,97.0,0.224,-99999.0,'11133222,11111222,99999999' 
WAVCIS,ioos:station:WAVCIS:CSI16:1,2012-03-02T10:00:00Z,29.4012,-89.0355,10.36,103.0,0.256,-99999.0,'11133222,11111222,99999999' 
WAVCIS,ioos:station:WAVCIS:CSI16:1,2012-03-02T11:00:00Z,29.4012,-89.0355,10.36,132.0,0.064,-99999.0,'11133222,11111222,99999999' 
WAVCIS,ioos:station:WAVCIS:CSI16:1,2012-03-02T12:00:00Z,29.4012,-89.0355,10.36,203.0,0.03,-99999.0,'11133222,11111222,99999999' 
WAVCIS,ioos:station:WAVCIS:CSI16:1,2012-03-02T13:00:00Z,29.4012,-89.0355,10.36,243.0,0.074,-99999.0,'11133222,11111222,99999999' 
WAVCIS,ioos:station:WAVCIS:CSI16:1,2012-03-02T14:00:00Z,29.4012,-89.0355,10.36,292.0,0.098,-99999.0,'11133222,11111222,99999999' 
WAVCIS,ioos:station:WAVCIS:CSI16:1,2012-03-02T15:00:00Z,29.4012,-89.0355,10.36,300.0,0.121,-99999.0,'11133222,11111222,99999999' 
WAVCIS,ioos:station:WAVCIS:CSI16:1,2012-03-02T16:00:00Z,29.4012,-89.0355,10.86,294.0,0.123,-99999.0,'11133222,11111222,99999999' 
WAVCIS,ioos:station:WAVCIS:CSI16:1,2012-03-02T17:00:00Z,29.4012,-89.0355,10.86,295.0,0.166,-99999.0,'11133222,11111222,99999999' 
WAVCIS,ioos:station:WAVCIS:CSI16:1,2012-03-02T18:00:00Z,29.4012,-89.0355,10.86,307.0,0.163,-99999.0,'11133222,11111222,99999999' 
WAVCIS,ioos:station:WAVCIS:CSI16:1,2012-03-02T19:00:00Z,29.4012,-89.0355,10.86,281.0,0.162,-99999.0,'11133222,11111222,99999999' 
WAVCIS,ioos:station:WAVCIS:CSI16:1,2012-03-02T20:00:00Z,29.4012,-89.0355,10.86,306.0,0.23,-99999.0,'11133222,11111222,99999999' 
WAVCIS,ioos:station:WAVCIS:CSI16:1,2012-03-02T21:00:00Z,29.4012,-89.0355,10.86,323.0,0.381,-99999.0,'11133222,11111222,99999999' 
WAVCIS,ioos:station:WAVCIS:CSI16:1,2012-03-02T22:00:00Z,29.4012,-89.0355,10.36,325.0,0.392,-99999.0,'11133222,11111222,99999999' 
WAVCIS,ioos:station:WAVCIS:CSI16:1,2012-03-02T23:00:00Z,29.4012,-89.0355,10.36,336.0,0.285,-99999.0,'11133222,11111222,99999999' 
WAVCIS,ioos:station:WAVCIS:CSI16:1,2012-03-03T00:00:00Z,29.4012,-89.0355,10.36,345.0,0.299,-99999.0,'11133222,11111222,99999999' 
WAVCIS,ioos:station:WAVCIS:CSI16:1,2012-03-03T01:00:00Z,29.4012,-89.0355,10.36,344.0,0.213,-99999.0,'11133222,11111222,99999999' 
WAVCIS,ioos:station:WAVCIS:CSI16:1,2012-03-03T02:00:00Z,29.4012,-89.0355,10.36,2.0,0.167,-99999.0,'11133222,11111222,99999999' 
WAVCIS,ioos:station:WAVCIS:CSI16:1,2012-03-03T03:00:00Z,29.4012,-89.0355,10.36,12.0,0.183,-99999.0,'11133222,11111222,99999999' 
WAVCIS,ioos:station:WAVCIS:CSI16:1,2012-03-03T04:00:00Z,29.4012,-89.0355,10.36,22.0,0.156,-99999.0,'11133222,11111222,99999999' 
WAVCIS,ioos:station:WAVCIS:CSI16:1,2012-03-03T05:00:00Z,29.4012,-89.0355,10.36,37.0,0.178,-99999.0,'11133222,11111222,99999999' 
WAVCIS,ioos:station:WAVCIS:CSI16:1,2012-03-03T06:00:00Z,29.4012,-89.0355,10.36,50.0,0.174,-99999.0,'11133222,11111222,99999999' 
WAVCIS,ioos:station:WAVCIS:CSI16:1,2012-03-03T07:00:00Z,29.4012,-89.0355,10.36,71.0,0.155,-99999.0,'11133222,11111222,99999999' 
WAVCIS,ioos:station:WAVCIS:CSI16:1,2012-03-03T08:00:00Z,29.4012,-89.0355,10.36,86.0,0.163,-99999.0,'11133222,11111222,99999999' 
WAVCIS,ioos:station:WAVCIS:CSI16:1,2012-03-03T09:00:00Z,29.4012,-89.0355,10.36,90.0,0.118,-99999.0,'11133222,11111222,99999999' 
WAVCIS,ioos:station:WAVCIS:CSI16:1,2012-03-03T10:00:00Z,29.4012,-89.0355,10.36,102.0,0.102,-99999.0,'11133222,11111222,99999999' 
WAVCIS,ioos:station:WAVCIS:CSI16:1,2012-03-03T11:00:00Z,29.4012,-89.0355,10.36,99.0,0.117,-99999.0,'11133222,11111222,99999999' 
WAVCIS,ioos:station:WAVCIS:CSI16:1,2012-03-03T12:00:00Z,29.4012,-89.0355,10.36,116.0,0.066,-99999.0,'11133222,11111222,99999999' 
WAVCIS,ioos:station:WAVCIS:CSI16:1,2012-03-03T13:00:00Z,29.4012,-89.0355,10.36,268.0,0.027,-99999.0,'11133222,11111222,99999999' 
WAVCIS,ioos:station:WAVCIS:CSI16:1,2012-03-03T14:00:00Z,29.4012,-89.0355,10.36,285.0,0.133,-99999.0,'11133222,11111222,99999999' 
WAVCIS,ioos:station:WAVCIS:CSI16:1,2012-03-03T15:00:00Z,29.4012,-89.0355,10.86,267.0,0.055,-99999.0,'11133222,11111222,99999999' 
WAVCIS,ioos:station:WAVCIS:CSI16:1,2012-03-03T16:00:00Z,29.4012,-89.0355,10.36,276.0,0.06,-99999.0,'11133222,11111222,99999999' 
WAVCIS,ioos:station:WAVCIS:CSI16:1,2012-03-03T17:00:00Z,29.4012,-89.0355,10.36,258.0,0.035,-99999.0,'11133222,11111222,99999999' 
WAVCIS,ioos:station:WAVCIS:CSI16:1,2012-03-03T18:00:00Z,29.4012,-89.0355,10.36,192.0,0.148,-99999.0,'11133222,11111222,99999999' 
WAVCIS,ioos:station:WAVCIS:CSI16:1,2012-03-03T19:00:00Z,29.4012,-89.0355,10.36,166.0,0.045,-99999.0,'11133222,11111222,99999999' 
WAVCIS,ioos:station:WAVCIS:CSI16:1,2012-03-03T20:00:00Z,29.4012,-89.0355,10.36,194.0,0.059,-99999.0,'11133222,11111222,99999999' 
WAVCIS,ioos:station:WAVCIS:CSI16:1,2012-03-03T21:00:00Z,29.4012,-89.0355,10.36,181.0,0.085,-99999.0,'11133222,11111222,99999999' 
WAVCIS,ioos:station:WAVCIS:CSI16:1,2012-03-03T22:00:00Z,29.4012,-89.0355,10.36,183.0,0.155,-99999.0,'11133222,11111222,99999999' 
WAVCIS,ioos:station:WAVCIS:CSI16:1,2012-03-03T23:00:00Z,29.4012,-89.0355,10.36,177.0,0.18,-99999.0,'11133222,11111222,99999999' 
WAVCIS,ioos:station:WAVCIS:CSI16:1,2012-03-04T00:00:00Z,29.4012,-89.0355,10.36,187.0,0.271,-99999.0,'11133222,11111222,99999999' 
WAVCIS,ioos:station:WAVCIS:CSI16:1,2012-03-04T01:00:00Z,29.4012,-89.0355,10.36,169.0,0.269,-99999.0,'11133222,11111222,99999999' 
WAVCIS,ioos:station:WAVCIS:CSI16:1,2012-03-04T02:00:00Z,29.4012,-89.0355,10.36,166.0,0.29,-99999.0,'11133222,11111222,99999999' 
WAVCIS,ioos:station:WAVCIS:CSI16:1,2012-03-04T03:00:00Z,29.4012,-89.0355,10.36,164.0,0.353,-99999.0,'11133222,11111222,99999999' 
WAVCIS,ioos:station:WAVCIS:CSI16:1,2012-03-04T04:00:00Z,29.4012,-89.0355,9.86,164.0,0.393,-99999.0,'11133222,11111222,99999999' 
WAVCIS,ioos:station:WAVCIS:CSI16:1,2012-03-04T05:00:00Z,29.4012,-89.0355,9.86,166.0,0.38,-99999.0,'11133222,11111222,99999999' 
WAVCIS,ioos:station:WAVCIS:CSI16:1,2012-03-04T06:00:00Z,29.4012,-89.0355,9.86,166.0,0.415,-99999.0,'11133222,11111222,99999999' 
WAVCIS,ioos:station:WAVCIS:CSI16:1,2012-03-04T07:00:00Z,29.4012,-89.0355,9.86,159.0,0.583,-99999.0,'11133222,11111222,99999999' 
WAVCIS,ioos:station:WAVCIS:CSI16:1,2012-03-04T08:00:00Z,29.4012,-89.0355,9.86,161.0,0.381,-99999.0,'11133222,11111222,99999999' 
WAVCIS,ioos:station:WAVCIS:CSI16:1,2012-03-04T09:00:00Z,29.4012,-89.0355,10.36,163.0,0.253,-99999.0,'11133222,11111222,99999999' 
WAVCIS,ioos:station:WAVCIS:CSI16:1,2012-03-04T10:00:00Z,29.4012,-89.0355,10.36,155.0,0.495,-99999.0,'11133222,11111222,99999999' 
WAVCIS,ioos:station:WAVCIS:CSI16:1,2012-03-04T11:00:00Z,29.4012,-89.0355,10.36,156.0,0.534,-99999.0,'11133222,11111222,99999999' 
WAVCIS,ioos:station:WAVCIS:CSI16:1,2012-03-04T12:00:00Z,29.4012,-89.0355,10.36,154.0,0.381,-99999.0,'11133222,11111222,99999999' 
WAVCIS,ioos:station:WAVCIS:CSI16:1,2012-03-04T13:00:00Z,29.4012,-89.0355,10.36,161.0,0.383,-99999.0,'11133222,11111222,99999999' 
WAVCIS,ioos:station:WAVCIS:CSI16:1,2012-03-04T14:00:00Z,29.4012,-89.0355,10.36,181.0,0.312,-99999.0,'11133222,11111222,99999999' 
WAVCIS,ioos:station:WAVCIS:CSI16:1,2012-03-04T15:00:00Z,29.4012,-89.0355,10.36,179.0,0.42,-99999.0,'11133222,11111222,99999999' 
WAVCIS,ioos:station:WAVCIS:CSI16:1,2012-03-04T16:00:00Z,29.4012,-89.0355,10.36,176.0,0.314,-99999.0,'11133222,11111222,99999999' 
WAVCIS,ioos:station:WAVCIS:CSI16:1,2012-03-04T17:00:00Z,29.4012,-89.0355,10.36,180.0,0.333,-99999.0,'11133222,11111222,99999999' 
WAVCIS,ioos:station:WAVCIS:CSI16:1,2012-03-04T18:00:00Z,29.4012,-89.0355,10.36,184.0,0.181,-99999.0,'11133222,11111222,99999999' 
WAVCIS,ioos:station:WAVCIS:CSI16:1,2012-03-04T19:00:00Z,29.4012,-89.0355,10.86,192.0,0.157,-99999.0,'11133222,11111222,99999999' 
WAVCIS,ioos:station:WAVCIS:CSI16:1,2012-03-04T20:00:00Z,29.4012,-89.0355,10.36,215.0,0.076,-99999.0,'11133222,11111222,99999999' 
WAVCIS,ioos:station:WAVCIS:CSI16:1,2012-03-04T21:00:00Z,29.4012,-89.0355,10.36,157.0,0.023,-99999.0,'11133222,11111222,99999999' 
WAVCIS,ioos:station:WAVCIS:CSI16:1,2012-03-04T22:00:00Z,29.4012,-89.0355,10.36,137.0,0.104,-99999.0,'11133222,11111222,99999999' 
WAVCIS,ioos:station:WAVCIS:CSI16:1,2012-03-04T23:00:00Z,29.4012,-89.0355,10.86,105.0,0.113,-99999.0,'11133222,11111222,99999999' 
WAVCIS,ioos:station:WAVCIS:CSI16:1,2012-03-05T00:00:00Z,29.4012,-89.0355,10.86,70.0,0.062,-99999.0,'11133222,11111222,99999999' 
WAVCIS,ioos:station:WAVCIS:CSI16:1,2012-03-05T01:00:00Z,29.4012,-89.0355,10.36,61.0,0.118,-99999.0,'11133222,11111222,99999999' 
WAVCIS,ioos:station:WAVCIS:CSI16:1,2012-03-05T02:00:00Z,29.4012,-89.0355,10.36,31.0,0.158,-99999.0,'11133222,11111222,99999999' 
WAVCIS,ioos:station:WAVCIS:CSI16:1,2012-03-05T03:00:00Z,29.4012,-89.0355,10.36,17.0,0.178,-99999.0,'11133222,11111222,99999999' 
WAVCIS,ioos:station:WAVCIS:CSI16:1,2012-03-05T04:00:00Z,29.4012,-89.0355,10.36,17.0,0.179,-99999.0,'11133222,11111222,99999999' 
WAVCIS,ioos:station:WAVCIS:CSI16:1,2012-03-05T05:00:00Z,29.4012,-89.0355,10.36,22.0,0.239,-99999.0,'11133222,11111222,99999999' 
WAVCIS,ioos:station:WAVCIS:CSI16:1,2012-03-05T06:00:00Z,29.4012,-89.0355,10.36,44.0,0.33,-99999.0,'11133222,11111222,99999999' 
WAVCIS,ioos:station:WAVCIS:CSI16:1,2012-03-05T07:00:00Z,29.4012,-89.0355,10.36,44.0,0.264,-99999.0,'11133222,11111222,99999999' 
WAVCIS,ioos:station:WAVCIS:CSI16:1,2012-03-05T08:00:00Z,29.4012,-89.0355,10.36,46.0,0.264,-99999.0,'11133222,11111222,99999999' 
WAVCIS,ioos:station:WAVCIS:CSI16:1,2012-03-05T09:00:00Z,29.4012,-89.0355,10.36,44.0,0.272,-99999.0,'11133222,11111222,99999999' 
WAVCIS,ioos:station:WAVCIS:CSI16:1,2012-03-05T10:00:00Z,29.4012,-89.0355,10.36,95.0,0.541,-99999.0,'11133222,11111222,99999999' 
WAVCIS,ioos:station:WAVCIS:CSI16:1,2012-03-05T11:00:00Z,29.4012,-89.0355,10.36,89.0,0.224,-99999.0,'11133222,11111222,99999999' 
WAVCIS,ioos:station:WAVCIS:CSI16:1,2012-03-05T12:00:00Z,29.4012,-89.0355,10.36,65.0,0.146,-99999.0,'11133222,11111222,99999999' 
WAVCIS,ioos:station:WAVCIS:CSI16:1,2012-03-05T13:00:00Z,29.4012,-89.0355,10.36,3.0,0.192,-99999.0,'11133222,11111222,99999999' 
WAVCIS,ioos:station:WAVCIS:CSI16:1,2012-03-05T14:00:00Z,29.4012,-89.0355,10.36,342.0,0.26,-99999.0,'11133222,11111222,99999999' 
WAVCIS,ioos:station:WAVCIS:CSI16:1,2012-03-05T15:00:00Z,29.4012,-89.0355,10.36,338.0,0.325,-99999.0,'11133222,11111222,99999999' 
WAVCIS,ioos:station:WAVCIS:CSI16:1,2012-03-05T16:00:00Z,29.4012,-89.0355,10.36,330.0,0.294,-99999.0,'11133222,11111222,99999999' 
WAVCIS,ioos:station:WAVCIS:CSI16:1,2012-03-05T17:00:00Z,29.4012,-89.0355,10.36,329.0,0.311,-99999.0,'11133222,11111222,99999999' 
WAVCIS,ioos:station:WAVCIS:CSI16:1,2012-03-05T18:00:00Z,29.4012,-89.0355,10.36,328.0,0.303,-99999.0,'11133222,11111222,99999999' 
WAVCIS,ioos:station:WAVCIS:CSI16:1,2012-03-05T19:00:00Z,29.4012,-89.0355,10.36,329.0,0.324,-99999.0,'11133222,11111222,99999999' 
WAVCIS,ioos:station:WAVCIS:CSI16:1,2012-03-05T20:00:00Z,29.4012,-89.0355,10.36,335.0,0.406,-99999.0,'11133222,11111222,99999999' 
WAVCIS,ioos:station:WAVCIS:CSI16:1,2012-03-05T21:00:00Z,29.4012,-89.0355,10.86,332.0,0.374,-99999.0,'11133222,11111222,99999999' 
WAVCIS,ioos:station:WAVCIS:CSI16:1,2012-03-05T22:00:00Z,29.4012,-89.0355,10.86,337.0,0.409,-99999.0,'11133222,11111222,99999999' 
WAVCIS,ioos:station:WAVCIS:CSI16:1,2012-03-05T23:00:00Z,29.4012,-89.0355,10.86,336.0,0.305,-99999.0,'11133222,11111222,99999999' 
WAVCIS,ioos:station:WAVCIS:CSI16:1,2012-03-06T00:00:00Z,29.4012,-89.0355,10.86,321.0,0.248,-99999.0,'11133222,11111222,99999999' 
WAVCIS,ioos:station:WAVCIS:CSI16:1,2012-03-06T01:00:00Z,29.4012,-89.0355,10.86,321.0,0.228,-99999.0,'11133222,11111222,99999999' 
WAVCIS,ioos:station:WAVCIS:CSI16:1,2012-03-06T02:00:00Z,29.4012,-89.0355,10.86,338.0,0.157,-99999.0,'11133222,11111222,99999999' 
WAVCIS,ioos:station:WAVCIS:CSI16:1,2012-03-06T03:00:00Z,29.4012,-89.0355,10.86,350.0,0.18,-99999.0,'11133222,11111222,99999999' 
WAVCIS,ioos:station:WAVCIS:CSI16:1,2012-03-06T04:00:00Z,29.4012,-89.0355,10.86,8.0,0.142,-99999.0,'11133222,11111222,99999999' 
WAVCIS,ioos:station:WAVCIS:CSI16:1,2012-03-06T05:00:00Z,29.4012,-89.0355,10.86,7.0,0.107,-99999.0,'11133222,11111222,99999999' 
WAVCIS,ioos:station:WAVCIS:CSI16:1,2012-03-06T06:00:00Z,29.4012,-89.0355,10.36,352.0,0.069,-99999.0,'11133222,11111222,99999999' 
WAVCIS,ioos:station:WAVCIS:CSI16:1,2012-03-06T07:00:00Z,29.4012,-89.0355,10.36,45.0,0.062,-99999.0,'11133222,11111222,99999999' 
WAVCIS,ioos:station:WAVCIS:CSI16:1,2012-03-06T08:00:00Z,29.4012,-89.0355,10.36,78.0,0.069,-99999.0,'11133222,11111222,99999999' 
WAVCIS,ioos:station:WAVCIS:CSI16:1,2012-03-06T09:00:00Z,29.4012,-89.0355,10.36,98.0,0.156,-99999.0,'11133222,11111222,99999999' 
WAVCIS,ioos:station:WAVCIS:CSI16:1,2012-03-06T10:00:00Z,29.4012,-89.0355,10.36,130.0,0.319,-99999.0,'11133222,11111222,99999999' 
WAVCIS,ioos:station:WAVCIS:CSI16:1,2012-03-06T11:00:00Z,29.4012,-89.0355,10.36,160.0,0.4,-99999.0,'11133222,11111222,99999999' 
WAVCIS,ioos:station:WAVCIS:CSI16:1,2012-03-06T12:00:00Z,29.4012,-89.0355,10.36,187.0,0.233,-99999.0,'11133222,11111222,99999999' 
WAVCIS,ioos:station:WAVCIS:CSI16:1,2012-03-06T13:00:00Z,29.4012,-89.0355,10.36,223.0,0.338,-99999.0,'11133222,11111222,99999999' 
WAVCIS,ioos:station:WAVCIS:CSI16:1,2012-03-06T14:00:00Z,29.4012,-89.0355,10.36,241.0,0.412,-99999.0,'11133222,11111222,99999999' 
WAVCIS,ioos:station:WAVCIS:CSI16:1,2012-03-06T15:00:00Z,29.4012,-89.0355,9.86,246.0,0.339,-99999.0,'11133222,11111222,99999999' 
WAVCIS,ioos:station:WAVCIS:CSI16:1,2012-03-06T16:00:00Z,29.4012,-89.0355,10.36,245.0,0.374,-99999.0,'11133222,11111222,99999999' 
WAVCIS,ioos:station:WAVCIS:CSI16:1,2012-03-06T17:00:00Z,29.4012,-89.0355,10.36,231.0,0.306,-99999.0,'11133222,11111222,99999999' 
WAVCIS,ioos:station:WAVCIS:CSI16:1,2012-03-06T18:00:00Z,29.4012,-89.0355,10.36,221.0,0.261,-99999.0,'11133222,11111222,99999999' 
WAVCIS,ioos:station:WAVCIS:CSI16:1,2012-03-06T19:00:00Z,29.4012,-89.0355,10.36,206.0,0.195,-99999.0,'11133222,11111222,99999999' 
WAVCIS,ioos:station:WAVCIS:CSI16:1,2012-03-06T20:00:00Z,29.4012,-89.0355,10.36,193.0,0.156,-99999.0,'11133222,11111222,99999999' 
WAVCIS,ioos:station:WAVCIS:CSI16:1,2012-03-06T21:00:00Z,29.4012,-89.0355,10.36,178.0,0.16,-99999.0,'11133222,11111222,99999999' 
WAVCIS,ioos:station:WAVCIS:CSI16:1,2012-03-06T22:00:00Z,29.4012,-89.0355,10.36,177.0,0.151,-99999.0,'11133222,11111222,99999999' 
WAVCIS,ioos:station:WAVCIS:CSI16:1,2012-03-06T23:00:00Z,29.4012,-89.0355,10.36,180.0,0.185,-99999.0,'11133222,11111222,99999999' 
WAVCIS,ioos:station:WAVCIS:CSI16:1,2012-03-07T00:00:00Z,29.4012,-89.0355,10.36,181.0,0.173,-99999.0,'11133222,11111222,99999999' 
WAVCIS,ioos:station:WAVCIS:CSI16:1,2012-03-07T01:00:00Z,29.4012,-89.0355,10.36,182.0,0.222,-99999.0,'11133222,11111222,99999999' 
WAVCIS,ioos:station:WAVCIS:CSI16:1,2012-03-07T02:00:00Z,29.4012,-89.0355,10.36,179.0,0.199,-99999.0,'11133222,11111222,99999999' 
WAVCIS,ioos:station:WAVCIS:CSI16:1,2012-03-07T03:00:00Z,29.4012,-89.0355,10.36,176.0,0.215,-99999.0,'11133222,11111222,99999999' 
WAVCIS,ioos:station:WAVCIS:CSI16:1,2012-03-07T04:00:00Z,29.4012,-89.0355,10.36,204.0,0.101,-99999.0,'11133222,11111222,99999999' 
WAVCIS,ioos:station:WAVCIS:CSI16:1,2012-03-07T05:00:00Z,29.4012,-89.0355,10.36,191.0,0.089,-99999.0,'11133222,11111222,99999999' 
WAVCIS,ioos:station:WAVCIS:CSI16:1,2012-03-07T06:00:00Z,29.4012,-89.0355,10.36,180.0,0.105,-99999.0,'11133222,11111222,99999999' 
WAVCIS,ioos:station:WAVCIS:CSI16:1,2012-03-07T07:00:00Z,29.4012,-89.0355,10.36,173.0,0.073,-99999.0,'11133222,11111222,99999999' 
WAVCIS,ioos:station:WAVCIS:CSI16:1,2012-03-07T08:00:00Z,29.4012,-89.0355,10.36,164.0,0.104,-99999.0,'11133222,11111222,99999999' 
WAVCIS,ioos:station:WAVCIS:CSI16:1,2012-03-07T09:00:00Z,29.4012,-89.0355,10.36,157.0,0.181,-99999.0,'11133222,11111222,99999999' 
WAVCIS,ioos:station:WAVCIS:CSI16:1,2012-03-07T10:00:00Z,29.4012,-89.0355,10.36,154.0,0.221,-99999.0,'11133222,11111222,99999999' 
WAVCIS,ioos:station:WAVCIS:CSI16:1,2012-03-07T11:00:00Z,29.4012,-89.0355,10.36,160.0,0.155,-99999.0,'11133222,11111222,99999999' 
WAVCIS,ioos:station:WAVCIS:CSI16:1,2012-03-07T12:00:00Z,29.4012,-89.0355,10.36,161.0,0.072,-99999.0,'11133222,11111222,99999999' 
WAVCIS,ioos:station:WAVCIS:CSI16:1,2012-03-07T13:00:00Z,29.4012,-89.0355,10.36,162.0,0.06,-99999.0,'11133222,11111222,99999999' 
WAVCIS,ioos:station:WAVCIS:CSI16:1,2012-03-07T14:00:00Z,29.4012,-89.0355,10.36,163.0,0.052,-99999.0,'11133222,11111222,99999999' 
WAVCIS,ioos:station:WAVCIS:CSI16:1,2012-03-07T15:00:00Z,29.4012,-89.0355,10.36,176.0,0.052,-99999.0,'11133222,11111222,99999999' 
WAVCIS,ioos:station:WAVCIS:CSI16:1,2012-03-07T16:00:00Z,29.4012,-89.0355,9.86,100.0,0.028,-99999.0,'11133222,11111222,99999999' 
WAVCIS,ioos:station:WAVCIS:CSI16:1,2012-03-07T17:00:00Z,29.4012,-89.0355,9.86,149.0,0.064,-99999.0,'11133222,11111222,99999999' 
WAVCIS,ioos:station:WAVCIS:CSI16:1,2012-03-07T18:00:00Z,29.4012,-89.0355,9.86,123.0,0.043,-99999.0,'11133222,11111222,99999999' 
WAVCIS,ioos:station:WAVCIS:CSI16:1,2012-03-07T19:00:00Z,29.4012,-89.0355,9.86,51.0,0.036,-99999.0,'11133222,11111222,99999999' 
WAVCIS,ioos:station:WAVCIS:CSI16:1,2012-03-07T20:00:00Z,29.4012,-89.0355,9.86,23.0,0.051,-99999.0,'11133222,11111222,99999999' 
WAVCIS,ioos:station:WAVCIS:CSI16:1,2012-03-07T21:00:00Z,29.4012,-89.0355,9.86,91.0,0.041,-99999.0,'11133222,11111222,99999999' 
WAVCIS,ioos:station:WAVCIS:CSI16:1,2012-03-07T22:00:00Z,29.4012,-89.0355,9.86,79.0,0.048,-99999.0,'11133222,11111222,99999999' 
WAVCIS,ioos:station:WAVCIS:CSI16:1,2012-03-07T23:00:00Z,29.4012,-89.0355,9.86,74.0,0.074,-99999.0,'11133222,11111222,99999999' 
WAVCIS,ioos:station:WAVCIS:CSI16:1,2012-03-08T00:00:00Z,29.4012,-89.0355,9.86,49.0,0.249,-99999.0,'11133222,11111222,99999999' 
WAVCIS,ioos:station:WAVCIS:CSI16:1,2012-03-08T01:00:00Z,29.4012,-89.0355,10.36,43.0,0.103,-99999.0,'11133222,11111222,99999999' 
WAVCIS,ioos:station:WAVCIS:CSI16:1,2012-03-08T02:00:00Z,29.4012,-89.0355,10.36,329.0,0.026,-99999.0,'11133222,11111222,99999999' 
WAVCIS,ioos:station:WAVCIS:CSI16:1,2012-03-08T03:00:00Z,29.4012,-89.0355,10.36,284.0,0.07,-99999.0,'11133222,11111222,99999999' 
WAVCIS,ioos:station:WAVCIS:CSI16:1,2012-03-08T04:00:00Z,29.4012,-89.0355,10.36,302.0,0.128,-99999.0,'11133222,11111222,99999999' 
WAVCIS,ioos:station:WAVCIS:CSI16:1,2012-03-08T05:00:00Z,29.4012,-89.0355,10.36,305.0,0.135,-99999.0,'11133222,11111222,99999999' 
WAVCIS,ioos:station:WAVCIS:CSI16:1,2012-03-08T06:00:00Z,29.4012,-89.0355,10.36,313.0,0.129,-99999.0,'11133222,11111222,99999999' 
WAVCIS,ioos:station:WAVCIS:CSI16:1,2012-03-08T07:00:00Z,29.4012,-89.0355,10.36,332.0,0.109,-99999.0,'11133222,11111222,99999999' 
WAVCIS,ioos:station:WAVCIS:CSI16:1,2012-03-08T08:00:00Z,29.4012,-89.0355,10.36,351.0,0.149,-99999.0,'11133222,11111222,99999999' 
WAVCIS,ioos:station:WAVCIS:CSI16:1,2012-03-08T09:00:00Z,29.4012,-89.0355,10.36,8.0,0.117,-99999.0,'11133222,11111222,99999999' 
WAVCIS,ioos:station:WAVCIS:CSI16:1,2012-03-08T10:00:00Z,29.4012,-89.0355,10.36,49.0,0.161,-99999.0,'11133222,11111222,99999999' 
WAVCIS,ioos:station:WAVCIS:CSI16:1,2012-03-08T11:00:00Z,29.4012,-89.0355,10.36,89.0,0.231,-99999.0,'11133222,11111222,99999999' 
WAVCIS,ioos:station:WAVCIS:CSI16:1,2012-03-08T12:00:00Z,29.4012,-89.0355,10.36,101.0,0.208,-99999.0,'11133222,11111222,99999999' 
WAVCIS,ioos:station:WAVCIS:CSI16:1,2012-03-08T13:00:00Z,29.4012,-89.0355,10.36,108.0,0.246,-99999.0,'11133222,11111222,99999999' 
WAVCIS,ioos:station:WAVCIS:CSI16:1,2012-03-08T14:00:00Z,29.4012,-89.0355,10.36,129.0,0.167,-99999.0,'11133222,11111222,99999999' 
WAVCIS,ioos:station:WAVCIS:CSI16:1,2012-03-08T15:00:00Z,29.4012,-89.0355,10.36,133.0,0.131,-99999.0,'11133222,11111222,99999999' 